Regional Weather Roundup
Issued by NWS Grand Forks, ND

Home | Current Version | Previous Version | Graphics & Text | Print | Product List | Glossary On
Versions: 1 2 3 4 5 6 7 8 9 10 11 12 13 14 15 16 17 18 19 20 21 22 23 24 25 26 27 28 29 30 31 32 33 34 35 36 37 38 39 40 41 42 43 44 45 46 47 48 49 50
000
ASUS43 KFGF 050710
RWRFGF
PRAIRIE TO PINES  WEATHER ROUNDUP
NATIONAL WEATHER SERVICE EASTERN NORTH DAKOTA/GRAND FORKS ND
200 AM CDT THU MAY 05 2016

 **SATELLITE DATA USED TO AUGMENT SKY COVER AT AUTOMATED STATIONS**
 *****  WEATHER ACROSS EASTERN NORTH DAKOTA  *****

CITY           SKY/WX    TMP DP  RH WIND       PRES   REMARKS
GRAND FORKS    CLEAR     54  30  40 S10       29.87F
GRAND FRKS AFB PTCLDY    57  28  33 SW12      29.87F
DEVILS LAKE    CLEAR     56  43  61 SW10      29.88F
FARGO          CLEAR     53  29  39 S10       29.93S
WAHPETON ARPT  SUNNY     46  28  49 S8        29.96S
$$

 ***** WEATHER ACROSS CENTRAL AND WESTERN NORTH DAKOTA  *****

CITY           SKY/WX    TMP DP  RH WIND       PRES   REMARKS
BISMARCK       CLEAR     63  45  51 SW10      29.94F
MINOT          CLEAR     68  42  38 SW12      29.85F
JAMESTOWN      CLEAR     52  39  61 S9        29.92F
MINOT AFB      CLEAR     61  45  55 SW13      29.83F
GARRISON         N/A     54  42  64 SW5       29.90S
WILLISTON      CLEAR     63  40  42 S6        29.86S
DICKINSON      CLEAR     55  41  59 S13       29.92F
HETTINGER      CLEAR     55  42  61 S9        29.99S
$$

 *****  OTHER AIRPORT OBSERVATIONS IN OUR AREA  *****

CITY           SKY/WX    TMP DP  RH WIND       PRES   REMARKS
WALHALLA       FAIR      66  39  37 SW14G23   29.80F
GRAFTON AIRPOR FAIR      50  32  50 S8        29.87F
VALLEY CITY AR FAIR      52  32  46 SW14      29.95S
CANDO          FAIR      61  41  48 SW14      29.87F
CAVALIER APRT  FAIR      55  36  47 S13       29.82F
GWINNER        FAIR      52  36  54 SW9       29.96F
SHEYENNE NWR     N/A     47  34  61 SW6       29.95S
ROLLA          FAIR      59  41  51 SW15      29.86F
 ***** THE ABOVE OBSERVATIONS ARE NON NWS ARE NOT QUALITY
       CONTROLLED AND MAY MIS-REPORT RAIN FOR SNOW...
$$

  *****  WEATHER ACROSS NORTHERN MINNESOTA  *****

CITY           SKY/WX    TMP DP  RH WIND       PRES   REMARKS
FLAG ISLAND    MOCLDY    46  39  76 S12       29.88F
WARROAD        CLOUDY    50  30  46 S7        29.91S
ROSEAU         PTCLDY    50  34  53 S9        29.89S
HALLOCK        CLEAR     52  27  37 S10       29.85S
THF RVR FALLS  PTCLDY    52  27  37 S10       29.91F
BAUDETTE       PTCLDY    47  25  42 S8        29.93F
WASKISH        MOCLDY    46  30  53 SE3       29.95S
CROOKSTON      CLEAR     55  28  35 S10       29.90F
STEPHEN NDAWN    N/A     54  30  40 S12         N/A
GREENBUSH NDAW   N/A     52  34  50 S6          N/A
$$
  *****  WEATHER ACROSS CENTRAL AND WEST MINNESOTA  *****

CITY           SKY/WX    TMP DP  RH WIND       PRES   REMARKS
FOSSTON        CLEAR     48  28  46 S7        29.93F
BEMIDJI        CLEAR     41  29  63 CALM      29.96S
PARK RAPIDS    CLEAR     45  29  53 CALM      29.97S
ELBOW LAKE     FAIR      49  36  58 SE6       29.98S
WADENA         CLEAR     43  28  56 SE5       29.98R
DETROIT LAKES  CLEAR     48  37  66 SE6       29.97R
MOORHEAD       CLEAR     52  30  43 S7        29.95S
FERGUS FALLS   CLEAR     52  36  54 S6        29.94S
MORRIS MN      CLEAR     45  34  65 S5        29.97F
STAPLES        CLEAR     39  30  70 CALM      29.99R
$$
  *****  WEATHER ELSEWHERE ACROSS MINNESOTA  *****

CITY           SKY/WX    TMP DP  RH WIND       PRES   REMARKS
DULUTH         CLEAR     37  27  67 CALM      30.00S
INTRNTL FALLS  CLOUDY    45  36  70 SE3       29.94S
ELY            PTCLDY    32  27  80 SE3       29.98F
CLOQUET        CLEAR     34  28  80 CALM      30.00S
WHEATON        CLEAR     54  34  47 S8        29.99F
BRAINERD       CLEAR     38  29  70 S3        29.99S
HIBBING        CLOUDY    33  28  81 CALM      30.00R
ALEXANDRIA     CLEAR     46  33  60 SE5       29.99F
SAINT CLOUD    CLEAR     39  31  72 CALM      30.00R
MINNEAPOLIS    CLEAR     50  27  40 SE8       30.01R
$$

  *****  WEATHER ACROSS SOUTH DAKOTA  *****

CITY           SKY/WX    TMP DP  RH WIND       PRES   REMARKS
SIOUX FALLS    CLEAR     44  36  73 CALM      30.02F
BROOKINGS      CLEAR     45  34  65 SE3       30.02S
WATERTOWN      CLEAR     44  35  70 S5        30.01S
HURON          CLEAR     49  41  74 SE3       30.01F
SISSETON         N/A     46  33  60 SW7       29.97F
ABERDEEN       CLEAR     46  35  65 S7        29.99S
MITCHELL       CLEAR     47  42  83 E3        30.03S
PIERRE         PTCLDY    48  40  73 NE3       30.00F
MOBRIDGE       CLEAR     52  45  77 SE8       29.96F
RAPID CITY     CLEAR     50  43  77 SE8       30.01F
$$

  *****  SOME WEATHER IN NEARBY STATES *****

CITY           SKY/WX    TMP DP  RH WIND       PRES   REMARKS
GLASGOW MT     CLOUDY    60  40  47 E12       29.82S
GREAT FALLS MT CLOUDY    54  41  61 W5        29.90R
CHEYENNE WY    CLEAR     51  35  54 S7        30.18S
SCOTTSBLUFF NE CLEAR     50  41  71 E9        30.09S
OMAHA NE       CLEAR     48  43  82 CALM      30.02S
DES MOINES IA  CLEAR     48  37  65 NW5       29.99S
DAVENPORT IA   CLEAR     43  34  70 NW8       29.94S
CHICAGO IL     MOCLDY    43  33  68 N16       29.88S
EAU CLAIRE WI  CLEAR     37  31  78 W3        29.99S
LA CROSSE WI   CLEAR     48  31  51 NE3       29.99S
$$

  *****  SOME NATIONAL WEATHER *****

CITY           SKY/WX    TMP DP  RH WIND       PRES   REMARKS
LA GUARDIA NY  CLOUDY    49  45  86 N9        29.73R
RALEIGH NC     PTCLDY    52  50  93 CALM      29.59F
ATLANTA GA     CLEAR     53  48  83 NW10      29.74F
NEW ORLEANS LA CLEAR     65  55  70 W8        29.88F
OKLAHOMA CITY  CLEAR     59  40  49 N7        30.05S
ALBUQUERQUE NM CLEAR     61  21  21 SW6       30.20R
SALT LAKE CITY MOCLDY    66  36  32 SE9       29.95S
LOS ANGELES CA MOCLDY    60  52  74 SW3       29.94F
BOISE ID       CLOUDY    68  43  40 N9        29.84F
SEATTLE WA     CLOUDY    53  46  77 W6        30.03R
$$

*** WEATHER ACROSS MANITOBA...SASKATCHEWAN AND ONTARIO ***
                ***ONTARIO***

CITY           SKY/WX    TMP DP  RH WIND       PRES   REMARKS
GERALDTON      CLOUDY    32  32 100 S5        29.98F
THUNDER BAY    PTCLDY    30  28  93 SW2       30.01S
SIOUX LOOKOUT  MOCLDY    45  25  45 S6        29.89F
TORONTO        PTCLDY    46  41  81 NE8       29.75F
BIG TROUT LK   CLEAR     37  27  65 SW7       29.70F
PICKLE LAKE    NOT AVBL
DRYDEN         LGT RAIN  45  37  76 S13       29.89F
KENORA         PTCLDY    50  25  37 S8        29.88F
$$
                *** MANITOBA***

CITY           SKY/WX    TMP DP  RH WIND       PRES   REMARKS
BRANDON        PTCLDY    59  39  47 SW13      29.77S
DAUPHIN        CLEAR     70  37  30 SW10      29.67S
ISLAND LAKE    PTCLDY    45  32  61 S3        29.65F
PILOT MOUND      N/A     55  41  58 SW10        N/A
THE PAS        CLEAR     57  45  62 S6        29.54F
THOMPSON       CLEAR     45  37  76 CALM      29.59S
WINNIPEG       CLEAR     59  32  36 S20G25    29.77F
LYNN LAKE      CLEAR     50  37  62 NE7       29.60R
CHURCHILL      MOCLDY    28  27  93 NE24      29.74R WCI  14
GILLAM         CLEAR     43  36  75 SW5       29.58S
$$
                ***SASKATCHEWAN***

CITY           SKY/WX    TMP DP  RH WIND       PRES   REMARKS
ESTEVAN        CLEAR     55  41  58 SW8       29.82S
KINDERSLEY     CLEAR     64  43  45 NE7       29.72F
LLOYDMINSTER   CLEAR     55  39  54 S5        29.69S
PRINCE ALBERT  MOCLDY    57  36  44 W5        29.66R
REGINA         CLEAR     54  34  47 SW6       29.78S
YORKTON        CLEAR     63  39  42 SW12      29.72R
N. BATTLEFORD  CLEAR     50  36  57 E7        29.72R
LA RONGE       PTCLDY    70  37  30 W12G20    29.55R
SASKATOON      PTCLDY    57  39  51 W3        29.73R
SWIFT CURRENT  CLEAR     59  37  44 S14       29.79S
$$
NOTE: THESE ARE AUTOMATED STATIONS WITH LIMITED QUALITY CONTROL
      "FAIR" INDICATES FEW OR NO CLOUDS BELOW 12,000 FEET WITH NO
      SIGNIFICANT WEATHER AND/OR OBSTRUCTIONS TO VISIBILITY.
      SKY/WX - SKY CONDITION AND SIGNIFICANT WEATHER.
      TMP - AIR TEMPERATURE.    DP   - DEWPOINT TEMPERATURE.
      RH  - RELATIVE HUMIDITY.  PRES - PRESSURE.
      HX  - HEAT INDEX.         WCI  - WIND CHILL INDEX.
$



USA.gov is the U.S. government's official web portal to all federal, state and local government web resources and services.